| time (UTC) | temp C | wind direction | speed KPH | gust KPH | rain 1hr cm | rain 24hr cm | rain mn cm | humidity % | barometer mb |
| 20260505230839 | 10 | 269 | 3.2 | 6.4 | 0.43 | 0.86 | 0.86 | 94 | 1006.9 |
| 20260505230344 | 10 | 329 | 3.2 | 6.4 | 0.46 | 0.84 | 0.84 | 94 | 1007.0 |
| 20260505225836 | 10 | 125 | 1.6 | 8.0 | 0.41 | 0.79 | 0.79 | 94 | 1007.0 |
| 20260505225417 | 10 | 125 | 3.2 | 8.0 | 0.38 | 0.74 | 0.74 | 94 | 1007.1 |
| 20260505224904 | 10 | 249 | 1.6 | 12.9 | 0.36 | 0.69 | 0.69 | 94 | 1006.9 |
| 20260505224337 | 10 | 186 | 4.8 | 12.9 | 0.38 | 0.66 | 0.66 | 94 | 1007.0 |
| 20260505223851 | 10 | 223 | 3.2 | 6.4 | 0.36 | 0.64 | 0.64 | 94 | 1007.1 |
| 20260505223348 | 10 | 273 | 3.2 | 6.4 | 0.33 | 0.58 | 0.58 | 94 | 1007.0 |
| 20260505222849 | 10 | 275 | 1.6 | 9.7 | 0.30 | 0.53 | 0.53 | 94 | 1006.9 |
| 20260505222342 | 10 | 132 | 4.8 | 9.7 | 0.33 | 0.51 | 0.51 | 94 | 1007.0 |
| 20260505221914 | 10 | 218 | 3.2 | 11.3 | 0.33 | 0.48 | 0.48 | 93 | 1007.0 |
| 20260505221347 | 10 | 224 | 4.8 | 11.3 | 0.30 | 0.43 | 0.43 | 93 | 1007.0 |
| 20260505220834 | 11 | 250 | 4.8 | 8.0 | 0.33 | 0.41 | 0.41 | 93 | 1006.9 |
| 20260505220354 | 11 | 124 | 4.8 | 11.3 | 0.33 | 0.38 | 0.38 | 93 | 1006.9 |
| 20260505215845 | 11 | 161 | 3.2 | 11.3 | 0.36 | 0.38 | 0.38 | 93 | 1007.0 |
| 20260505215344 | 11 | 239 | 4.8 | 8.0 | 0.30 | 0.33 | 0.33 | 93 | 1006.7 |
| 20260505214844 | 11 | 51 | 3.2 | 8.0 | 0.28 | 0.30 | 0.30 | 93 | 1006.5 |
| 20260505214340 | 11 | 238 | 3.2 | 8.0 | 0.28 | 0.28 | 0.28 | 92 | 1006.4 |
| 20260505213835 | 11 | 317 | 3.2 | 9.7 | 0.25 | 0.25 | 0.25 | 92 | 1006.3 |
| 20260505213340 | 11 | 18 | 3.2 | 16.1 | 0.23 | 0.23 | 0.23 | 92 | 1006.2 |
| 20260505212843 | 11 | 224 | 4.8 | 16.1 | 0.20 | 0.20 | 0.20 | 91 | 1006.3 |
| 20260505212347 | 11 | 281 | 4.8 | 11.3 | 0.18 | 0.18 | 0.18 | 91 | 1006.2 |
| 20260505211834 | 11 | 196 | 4.8 | 9.7 | 0.13 | 0.13 | 0.13 | 91 | 1006.2 |
| 20260505211351 | 11 | 221 | 4.8 | 9.7 | 0.13 | 0.13 | 0.13 | 90 | 1006.1 |
| 20260505210843 | 12 | 235 | 4.8 | 14.5 | 0.08 | 0.08 | 0.08 | 90 | 1006.0 |
| 20260505210340 | 12 | 224 | 4.8 | 14.5 | 0.05 | 0.05 | 0.05 | 89 | 1005.9 |
| 20260505205908 | 12 | 238 | 6.4 | 12.9 | 0.03 | 0.03 | 0.03 | 88 | 1005.8 |
| 20260505205346 | 12 | 194 | 3.2 | 14.5 | 0.03 | 0.03 | 0.03 | 87 | 1005.8 |
| 20260505204843 | 12 | 290 | 8.0 | 20.9 | 0.03 | 0.03 | 0.03 | 85 | 1005.7 |
| 20260505204340 | 13 | 218 | 8.0 | 22.5 | 0.00 | 0.00 | 0.00 | 83 | 1005.7 |
| 20260505203841 | 13 | 254 | 6.4 | 22.5 | 0.00 | 0.00 | 0.00 | 82 | 1005.9 |
| 20260505203337 | 13 | 236 | 3.2 | 14.5 | 0.00 | 0.00 | 0.00 | 82 | 1005.8 |
| 20260505202907 | 13 | 236 | 3.2 | 14.5 | 0.00 | 0.00 | 0.00 | 81 | 1005.7 |
| 20260505202341 | 13 | 236 | 4.8 | 20.9 | 0.00 | 0.00 | 0.00 | 80 | 1005.9 |
| 20260505201841 | 13 | 242 | 6.4 | 24.1 | 0.00 | 0.00 | 0.00 | 80 | 1005.7 |
| 20260505201350 | 13 | 219 | 9.7 | 17.7 | 0.00 | 0.00 | 0.00 | 81 | 1005.8 |
| 20260505200849 | 13 | 236 | 8.0 | 20.9 | 0.00 | 0.00 | 0.00 | 81 | 1005.7 |
| 20260505200345 | 13 | 252 | 6.4 | 27.4 | 0.00 | 0.00 | 0.00 | 81 | 1005.7 |
| 20260505195840 | 14 | 146 | 11.3 | 30.6 | 0.00 | 0.00 | 0.00 | 80 | 1005.8 |
| 20260505195357 | 14 | 227 | 9.7 | 30.6 | 0.00 | 0.00 | 0.00 | 80 | 1005.7 |
| 20260505194844 | 14 | 202 | 3.2 | 27.4 | 0.00 | 0.00 | 0.00 | 79 | 1005.7 |
| 20260505194339 | 15 | 225 | 6.4 | 35.4 | 0.00 | 0.00 | 0.00 | 78 | 1005.8 |
| 20260505193843 | 15 | 340 | 14.5 | 35.4 | 0.00 | 0.00 | 0.00 | 78 | 1005.7 |
| 20260505193413 | 15 | 238 | 8.0 | 19.3 | 0.00 | 0.00 | 0.00 | 78 | 1005.5 |
| 20260505192842 | 15 | 118 | 6.4 | 19.3 | 0.00 | 0.00 | 0.00 | 78 | 1005.4 |
| 20260505192335 | 15 | 295 | 8.0 | 24.1 | 0.00 | 0.00 | 0.00 | 77 | 1005.2 |
| 20260505191839 | 15 | 264 | 11.3 | 24.1 | 0.00 | 0.00 | 0.00 | 78 | 1005.5 |
| 20260505191341 | 15 | 265 | 8.0 | 24.1 | 0.00 | 0.00 | 0.00 | 77 | 1005.6 |
| 20260505190338 | 15 | 232 | 8.0 | 29.0 | 0.00 | 0.00 | 0.00 | 77 | 1005.7 |
| 20260505185839 | 15 | 215 | 9.7 | 29.0 | 0.00 | 0.00 | 0.00 | 77 | 1005.7 |
| 20260505185339 | 15 | 276 | 9.7 | 27.4 | 0.00 | 0.00 | 0.00 | 78 | 1005.7 |
| 20260505184845 | 15 | 200 | 12.9 | 27.4 | 0.00 | 0.00 | 0.00 | 77 | 1005.8 |
| 20260505184341 | 15 | 203 | 9.7 | 17.7 | 0.00 | 0.00 | 0.00 | 78 | 1005.7 |
| 20260505183845 | 15 | 215 | 8.0 | 19.3 | 0.00 | 0.00 | 0.00 | 79 | 1005.6 |
| 20260505183341 | 14 | 304 | 9.7 | 19.3 | 0.00 | 0.00 | 0.00 | 77 | 1005.5 |
| 20260505182835 | 15 | 230 | 6.4 | 16.1 | 0.00 | 0.00 | 0.00 | 77 | 1005.6 |
| 20260505182352 | 15 | 240 | 8.0 | 20.9 | 0.00 | 0.00 | 0.00 | 76 | 1005.5 |
| 20260505181849 | 15 | 210 | 6.4 | 22.5 | 0.00 | 0.00 | 0.00 | 75 | 1005.4 |
| 20260505181345 | 15 | 227 | 11.3 | 22.5 | 0.00 | 0.00 | 0.00 | 76 | 1005.1 |
| 20260505180839 | 15 | 221 | 6.4 | 19.3 | 0.00 | 0.00 | 0.00 | 76 | 1005.0 |
| 20260505180332 | 15 | 304 | 8.0 | 29.0 | 0.00 | 0.00 | 0.00 | 77 | 1005.0 |
| 20260505175844 | 15 | 249 | 9.7 | 29.0 | 0.00 | 0.00 | 0.00 | 76 | 1005.0 |
| 20260505175341 | 15 | 255 | 9.7 | 17.7 | 0.00 | 0.00 | 0.00 | 76 | 1005.0 |
| 20260505174855 | 15 | 225 | 9.7 | 19.3 | 0.00 | 0.00 | 0.00 | 76 | 1005.0 |
| 20260505174339 | 15 | 241 | 9.7 | 19.3 | 0.00 | 0.00 | 0.00 | 76 | 1005.0 |
| 20260505173905 | 15 | 223 | 6.4 | 16.1 | 0.00 | 0.00 | 0.00 | 76 | 1004.9 |
| 20260505173349 | 15 | 234 | 6.4 | 29.0 | 0.00 | 0.00 | 0.00 | 76 | 1005.0 |
| 20260505172851 | 15 | 45 | 9.7 | 29.0 | 0.00 | 0.00 | 0.00 | 75 | 1004.9 |
| 20260505172350 | 15 | 221 | 9.7 | 25.7 | 0.00 | 0.00 | 0.00 | 74 | 1005.2 |
| 20260505171838 | 16 | 12 | 4.8 | 17.7 | 0.00 | 0.00 | 0.00 | 72 | 1005.1 |
| 20260505171342 | 16 | 103 | 8.0 | 14.5 | 0.00 | 0.00 | 0.00 | 71 | 1005.0 |
| 20260505170839 | 17 | 288 | 4.8 | 25.7 | 0.00 | 0.00 | 0.00 | 69 | 1004.9 |
| 20260505170333 | 17 | 252 | 12.9 | 25.7 | 0.00 | 0.00 | 0.00 | 67 | 1004.7 |
| 20260505165848 | 18 | 181 | 8.0 | 29.0 | 0.00 | 0.00 | 0.00 | 68 | 1004.7 |
| 20260505165341 | 17 | 254 | 12.9 | 29.0 | 0.00 | 0.00 | 0.00 | 69 | 1004.6 |
| 20260505164838 | 16 | 217 | 8.0 | 22.5 | 0.00 | 0.00 | 0.00 | 71 | 1004.6 |
| 20260505164335 | 16 | 220 | 9.7 | 22.5 | 0.00 | 0.00 | 0.00 | 72 | 1004.4 |
| 20260505163913 | 15 | 227 | 8.0 | 30.6 | 0.00 | 0.00 | 0.00 | 73 | 1004.4 |
| 20260505163345 | 15 | 259 | 12.9 | 30.6 | 0.00 | 0.00 | 0.00 | 74 | 1004.3 |
| 20260505162904 | 15 | 211 | 9.7 | 22.5 | 0.00 | 0.00 | 0.00 | 74 | 1004.3 |
| 20260505162339 | 15 | 207 | 11.3 | 22.5 | 0.00 | 0.00 | 0.00 | 73 | 1004.6 |
| 20260505161839 | 15 | 236 | 8.0 | 25.7 | 0.00 | 0.00 | 0.00 | 73 | 1004.5 |
| 20260505161341 | 15 | 217 | 8.0 | 17.7 | 0.00 | 0.00 | 0.00 | 72 | 1004.7 |
| 20260505160834 | 16 | 250 | 9.7 | 22.5 | 0.00 | 0.00 | 0.00 | 70 | 1004.3 |
| 20260505160332 | 16 | 229 | 9.7 | 22.5 | 0.00 | 0.00 | 0.00 | 68 | 1004.3 |
| 20260505153341 | 18 | 259 | 8.0 | 35.4 | 0.00 | 0.00 | 0.00 | 66 | 1004.0 |
| 20260505152859 | 18 | 245 | 12.9 | 24.1 | 0.00 | 0.00 | 0.00 | 64 | 1003.9 |
| 20260505152416 | 18 | 204 | 9.7 | 32.2 | 0.00 | 0.00 | 0.00 | 64 | 1003.9 |
| 20260505151835 | 18 | 246 | 12.9 | 32.2 | 0.00 | 0.00 | 0.00 | 62 | 1003.5 |
| 20260505151345 | 18 | 238 | 11.3 | 25.7 | 0.00 | 0.00 | 0.00 | 66 | 1003.5 |
| 20260505150905 | 18 | 230 | 14.5 | 25.7 | 0.00 | 0.00 | 0.00 | 66 | 1003.3 |
| 20260505150414 | 18 | 274 | 11.3 | 24.1 | 0.00 | 0.00 | 0.00 | 65 | 1003.2 |
| 20260505140346 | 18 | 221 | 9.7 | 29.0 | 0.00 | 0.00 | 0.00 | 68 | 1003.3 |
| 20260505124853 | 17 | 244 | 9.7 | 27.4 | 0.00 | 0.00 | 0.00 | 69 | 1002.5 |
| 20260505124412 | 17 | 265 | 11.3 | 27.4 | 0.00 | 0.00 | 0.00 | 68 | 1002.5 |
| 20260505123851 | 17 | 219 | 8.0 | 27.4 | 0.00 | 0.00 | 0.00 | 71 | 1002.5 |
| 20260505123404 | 17 | 109 | 6.4 | 32.2 | 0.00 | 0.00 | 0.00 | 69 | 1002.4 |
| 20260505122835 | 17 | 213 | 8.0 | 32.2 | 0.00 | 0.00 | 0.00 | 70 | 1002.5 |
| 20260505122405 | 17 | 184 | 9.7 | 25.7 | 0.00 | 0.00 | 0.00 | 71 | 1002.5 |
| 20260505121841 | 17 | 129 | 8.0 | 22.5 | 0.00 | 0.00 | 0.00 | 71 | 1002.5 |
| 20260505121339 | 16 | 251 | 9.7 | 22.5 | 0.00 | 0.00 | 0.00 | 70 | 1002.5 |
| 20260505120901 | 16 | 202 | 8.0 | 19.3 | 0.00 | 0.00 | 0.00 | 71 | 1002.4 |
| 20260505120331 | 16 | 181 | 9.7 | 17.7 | 0.00 | 0.00 | 0.00 | 71 | 1002.5 |
| 20260505115838 | 16 | 207 | 8.0 | 16.1 | 0.00 | 0.00 | 0.00 | 71 | 1002.3 |
| 20260505115339 | 17 | 202 | 9.7 | 16.1 | 0.00 | 0.00 | 0.00 | 71 | 1002.2 |
| 20260505114837 | 17 | 238 | 6.4 | 17.7 | 0.00 | 0.00 | 0.00 | 70 | 1002.2 |
| 20260505114338 | 17 | 221 | 6.4 | 22.5 | 0.00 | 0.00 | 0.00 | 69 | 1002.2 |
| 20260505113838 | 17 | 254 | 9.7 | 32.2 | 0.00 | 0.00 | 0.00 | 69 | 1002.0 |
| 20260505113352 | 17 | 286 | 12.9 | 33.8 | 0.00 | 0.00 | 0.00 | 69 | 1002.1 |
| 20260505112842 | 17 | 360 | 8.0 | 33.8 | 0.00 | 0.00 | 0.00 | 70 | 1002.2 |
| 20260505112337 | 16 | 294 | 4.8 | 24.1 | 0.00 | 0.00 | 0.00 | 72 | 1002.1 |
| 20260505111835 | 16 | 249 | 8.0 | 27.4 | 0.00 | 0.00 | 0.00 | 72 | 1002.1 |
| 20260505111336 | 16 | 268 | 9.7 | 27.4 | 0.00 | 0.00 | 0.00 | 72 | 1002.1 |
| 20260505110835 | 16 | 227 | 9.7 | 24.1 | 0.00 | 0.00 | 0.00 | 72 | 1002.0 |
| 20260505110334 | 16 | 265 | 8.0 | 17.7 | 0.00 | 0.00 | 0.00 | 73 | 1001.8 |
| 20260505101838 | 15 | 178 | 6.4 | 12.9 | 0.00 | 0.00 | 0.00 | 78 | 1001.4 |
| 20260505101341 | 15 | 201 | 4.8 | 25.7 | 0.00 | 0.00 | 0.00 | 79 | 1001.4 |
| 20260505100839 | 14 | 205 | 4.8 | 16.1 | 0.00 | 0.00 | 0.00 | 80 | 1001.4 |
| 20260505100353 | 14 | 209 | 4.8 | 12.9 | 0.00 | 0.00 | 0.00 | 80 | 1001.4 |
| 20260505095900 | 14 | 227 | 4.8 | 12.9 | 0.00 | 0.00 | 0.00 | 80 | 1001.4 |
| 20260505095335 | 14 | 205 | 4.8 | 12.9 | 0.00 | 0.00 | 0.00 | 80 | 1001.5 |
| 20260505094848 | 14 | 212 | 4.8 | 9.7 | 0.00 | 0.00 | 0.00 | 80 | 1001.4 |
| 20260505094349 | 14 | 201 | 4.8 | 11.3 | 0.00 | 0.00 | 0.00 | 80 | 1001.4 |
| 20260505093906 | 14 | 348 | 4.8 | 14.5 | 0.00 | 0.00 | 0.00 | 80 | 1001.3 |
| 20260505093343 | 14 | 210 | 4.8 | 16.1 | 0.00 | 0.00 | 0.00 | 80 | 1001.3 |
| 20260505092844 | 14 | 196 | 4.8 | 16.1 | 0.00 | 0.00 | 0.00 | 81 | 1001.3 |
| 20260505092344 | 14 | 249 | 3.2 | 17.7 | 0.00 | 0.00 | 0.00 | 80 | 1001.4 |
| 20260505091852 | 14 | 179 | 8.0 | 17.7 | 0.00 | 0.00 | 0.00 | 80 | 1001.3 |
| 20260505091338 | 14 | 214 | 4.8 | 14.5 | 0.00 | 0.00 | 0.00 | 80 | 1001.3 |
| 20260505090840 | 15 | 175 | 4.8 | 14.5 | 0.00 | 0.00 | 0.00 | 79 | 1001.3 |
| 20260505090337 | 14 | 227 | 3.2 | 16.1 | 0.00 | 0.00 | 0.00 | 80 | 1001.3 |
| 20260505085850 | 14 | 147 | 3.2 | 16.1 | 0.00 | 0.00 | 0.00 | 80 | 1001.2 |
| 20260505085352 | 14 | 150 | 4.8 | 12.9 | 0.00 | 0.00 | 0.00 | 80 | 1001.3 |
| 20260505084835 | 14 | 208 | 4.8 | 11.3 | 0.00 | 0.00 | 0.00 | 80 | 1001.4 |
| 20260505084334 | 14 | 238 | 3.2 | 16.1 | 0.00 | 0.00 | 0.00 | 80 | 1001.4 |
| 20260505083837 | 14 | 248 | 4.8 | 16.1 | 0.00 | 0.00 | 0.00 | 81 | 1001.4 |
| 20260505083342 | 14 | 167 | 3.2 | 6.4 | 0.00 | 0.00 | 0.00 | 80 | 1001.4 |
| 20260505082856 | 14 | 197 | 3.2 | 12.9 | 0.00 | 0.00 | 0.00 | 81 | 1001.6 |
| 20260505082333 | 15 | 275 | 3.2 | 20.9 | 0.00 | 0.00 | 0.00 | 80 | 1001.5 |
| 20260505081835 | 15 | 238 | 6.4 | 20.9 | 0.00 | 0.00 | 0.00 | 80 | 1001.5 |
| 20260505081341 | 15 | 130 | 4.8 | 20.9 | 0.00 | 0.00 | 0.00 | 80 | 1001.6 |
| 20260505080841 | 15 | 198 | 6.4 | 20.9 | 0.00 | 0.00 | 0.00 | 80 | 1001.7 |
| 20260505080339 | 15 | 219 | 11.3 | 25.7 | 0.00 | 0.00 | 0.00 | 79 | 1001.7 |
| 20260505075850 | 15 | 222 | 14.5 | 25.7 | 0.00 | 0.00 | 0.00 | 77 | 1001.6 |
| 20260505075346 | 15 | 263 | 6.4 | 25.7 | 0.00 | 0.00 | 0.00 | 76 | 1001.4 |
| 20260505074837 | 15 | 268 | 6.4 | 22.5 | 0.00 | 0.00 | 0.00 | 77 | 1001.5 |
| 20260505074355 | 15 | 189 | 8.0 | 22.5 | 0.00 | 0.00 | 0.00 | 77 | 1001.5 |
| 20260505073854 | 14 | 343 | 4.8 | 19.3 | 0.00 | 0.00 | 0.00 | 78 | 1001.4 |
| 20260505073350 | 14 | 240 | 8.0 | 19.3 | 0.00 | 0.00 | 0.00 | 78 | 1001.4 |
| 20260505072841 | 14 | 226 | 6.4 | 17.7 | 0.00 | 0.00 | 0.00 | 79 | 1001.3 |
| 20260505072341 | 14 | 178 | 4.8 | 16.1 | 0.00 | 0.00 | 0.00 | 79 | 1001.3 |
| 20260505071837 | 14 | 193 | 4.8 | 16.1 | 0.00 | 0.00 | 0.00 | 80 | 1001.5 |
| 20260505071350 | 14 | 261 | 4.8 | 16.1 | 0.00 | 0.00 | 0.00 | 81 | 1001.6 |
| 20260505070913 | 14 | 225 | 6.4 | 16.1 | 0.00 | 0.00 | 0.00 | 82 | 1001.6 |
| 20260505070347 | 13 | 207 | 4.8 | 17.7 | 0.00 | 0.00 | 0.00 | 82 | 1001.7 |
| 20260505065849 | 13 | 171 | 3.2 | 8.0 | 0.00 | 0.00 | 0.00 | 83 | 1001.7 |
| 20260505065335 | 13 | 213 | 3.2 | 6.4 | 0.00 | 0.00 | 0.00 | 83 | 1001.7 |
| 20260505064846 | 13 | 269 | 3.2 | 11.3 | 0.00 | 0.00 | 0.00 | 83 | 1001.9 |
| 20260505064347 | 13 | 123 | 4.8 | 11.3 | 0.00 | 0.00 | 0.00 | 84 | 1002.0 |
| 20260505063842 | 13 | 194 | 3.2 | 11.3 | 0.00 | 0.00 | 0.00 | 84 | 1002.0 |
| 20260505063338 | 13 | 202 | 1.6 | 11.3 | 0.00 | 0.00 | 0.00 | 84 | 1002.3 |
| 20260505062836 | 13 | 263 | 3.2 | 12.9 | 0.00 | 0.00 | 0.00 | 83 | 1002.4 |
| 20260505062336 | 13 | 216 | 4.8 | 11.3 | 0.00 | 0.00 | 0.00 | 83 | 1002.2 |
| 20260505061900 | 13 | 233 | 3.2 | 6.4 | 0.00 | 0.00 | 0.00 | 82 | 1002.7 |
| 20260505061347 | 13 | 236 | 1.6 | 3.2 | 0.00 | 0.00 | 0.00 | 82 | 1002.7 |
| 20260505060838 | 13 | 236 | 0.0 | 3.2 | 0.00 | 0.00 | 0.00 | 81 | 1002.7 |
| 20260505060337 | 14 | 236 | 0.0 | 4.8 | 0.00 | 0.00 | 0.00 | 81 | 1002.8 |
| 20260505055841 | 14 | 236 | 1.6 | 4.8 | 0.00 | 0.00 | 0.00 | 80 | 1002.8 |
| 20260505055353 | 14 | 283 | 1.6 | 4.8 | 0.00 | 0.00 | 0.00 | 80 | 1002.8 |
| 20260505054838 | 15 | 320 | 1.6 | 11.3 | 0.00 | 0.00 | 0.00 | 79 | 1003.0 |
| 20260505054349 | 15 | 227 | 3.2 | 16.1 | 0.00 | 0.00 | 0.00 | 78 | 1002.9 |
| 20260505053852 | 15 | 259 | 8.0 | 16.1 | 0.00 | 0.00 | 0.00 | 79 | 1002.8 |
| 20260505053343 | 15 | 255 | 4.8 | 19.3 | 0.00 | 0.00 | 0.00 | 79 | 1002.7 |
| 20260505052903 | 15 | 256 | 4.8 | 19.3 | 0.00 | 0.00 | 0.00 | 78 | 1002.7 |
| 20260505052334 | 15 | 257 | 6.4 | 11.3 | 0.00 | 0.00 | 0.00 | 77 | 1002.7 |
| 20260505051842 | 15 | 231 | 3.2 | 16.1 | 0.00 | 0.00 | 0.00 | 77 | 1002.8 |
| 20260505051400 | 15 | 205 | 8.0 | 25.7 | 0.00 | 0.00 | 0.00 | 76 | 1002.9 |
| 20260505050857 | 15 | 212 | 8.0 | 17.7 | 0.00 | 0.00 | 0.00 | 74 | 1003.0 |
| 20260505050336 | 15 | 230 | 6.4 | 16.1 | 0.00 | 0.00 | 0.00 | 73 | 1003.1 |
| 20260505041342 | 15 | 205 | 4.8 | 16.1 | 0.00 | 0.00 | 0.00 | 76 | 1002.6 |
| 20260505040834 | 15 | 189 | 4.8 | 16.1 | 0.00 | 0.00 | 0.00 | 76 | 1002.6 |
| 20260505040336 | 15 | 169 | 8.0 | 16.1 | 0.00 | 0.00 | 0.00 | 76 | 1002.7 |
| 20260505035847 | 15 | 202 | 3.2 | 11.3 | 0.00 | 0.00 | 0.00 | 76 | 1002.5 |
| 20260505035401 | 15 | 286 | 1.6 | 12.9 | 0.00 | 0.00 | 0.00 | 77 | 1002.4 |
| 20260505034835 | 14 | 148 | 4.8 | 12.9 | 0.00 | 0.00 | 0.00 | 77 | 1002.6 |
| 20260505034403 | 14 | 128 | 3.2 | 9.7 | 0.00 | 0.00 | 0.00 | 77 | 1002.5 |
| 20260505033840 | 14 | 295 | 3.2 | 16.1 | 0.00 | 0.00 | 0.00 | 77 | 1002.6 |
| 20260505033401 | 15 | 146 | 4.8 | 12.9 | 0.00 | 0.00 | 0.00 | 76 | 1002.5 |
| 20260505032846 | 15 | 165 | 6.4 | 17.7 | 0.00 | 0.00 | 0.00 | 76 | 1002.6 |
| 20260505032338 | 15 | 157 | 6.4 | 17.7 | 0.00 | 0.00 | 0.00 | 75 | 1002.6 |
| 20260505031850 | 15 | 187 | 4.8 | 14.5 | 0.00 | 0.00 | 0.00 | 75 | 1002.8 |
| 20260505031346 | 15 | 219 | 4.8 | 11.3 | 0.00 | 0.00 | 0.00 | 74 | 1002.8 |
| 20260505030847 | 15 | 114 | 1.6 | 12.9 | 0.00 | 0.00 | 0.00 | 74 | 1002.8 |
| 20260505030342 | 15 | 226 | 3.2 | 12.9 | 0.00 | 0.00 | 0.00 | 73 | 1002.8 |
| 20260505025845 | 15 | 173 | 3.2 | 9.7 | 0.00 | 0.00 | 0.00 | 73 | 1002.8 |
| 20260505025404 | 15 | 231 | 4.8 | 16.1 | 0.00 | 0.00 | 0.00 | 72 | 1002.9 |
| 20260505024856 | 15 | 188 | 4.8 | 16.1 | 0.00 | 0.00 | 0.00 | 72 | 1003.1 |
| 20260505024406 | 15 | 185 | 3.2 | 19.3 | 0.00 | 0.00 | 0.00 | 72 | 1003.1 |
| 20260505023903 | 15 | 214 | 6.4 | 19.3 | 0.00 | 0.00 | 0.00 | 72 | 1003.1 |
| 20260505023336 | 15 | 138 | 3.2 | 9.7 | 0.00 | 0.00 | 0.00 | 71 | 1003.0 |
| 20260505022848 | 15 | 166 | 4.8 | 12.9 | 0.00 | 0.00 | 0.00 | 70 | 1003.1 |
| 20260505022343 | 15 | 192 | 1.6 | 16.1 | 0.00 | 0.00 | 0.00 | 69 | 1003.2 |
| 20260505021839 | 15 | 119 | 6.4 | 16.1 | 0.00 | 0.00 | 0.00 | 67 | 1003.3 |
| 20260505021345 | 16 | 253 | 6.4 | 14.5 | 0.00 | 0.00 | 0.00 | 67 | 1003.2 |
| 20260505020842 | 16 | 254 | 3.2 | 11.3 | 0.00 | 0.00 | 0.00 | 65 | 1003.2 |
| 20260505020337 | 16 | 255 | 3.2 | 24.1 | 0.00 | 0.00 | 0.00 | 65 | 1003.2 |
| 20260505015847 | 16 | 323 | 6.4 | 24.1 | 0.00 | 0.00 | 0.00 | 63 | 1003.2 |
| 20260505015349 | 17 | 238 | 9.7 | 22.5 | 0.00 | 0.00 | 0.00 | 59 | 1003.1 |
| 20260505014837 | 16 | 234 | 8.0 | 16.1 | 0.00 | 0.00 | 0.00 | 55 | 1003.3 |
| 20260505014343 | 16 | 250 | 6.4 | 16.1 | 0.00 | 0.00 | 0.00 | 55 | 1002.9 |
| 20260505013842 | 16 | 263 | 3.2 | 8.0 | 0.00 | 0.00 | 0.00 | 54 | 1002.7 |
| 20260505013347 | 16 | 209 | 3.2 | 8.0 | 0.00 | 0.00 | 0.00 | 55 | 1002.6 |
| 20260505012845 | 16 | 182 | 1.6 | 9.7 | 0.00 | 0.00 | 0.00 | 53 | 1002.6 |
| 20260505012349 | 16 | 113 | 3.2 | 14.5 | 0.00 | 0.00 | 0.00 | 53 | 1002.7 |
| 20260505011839 | 16 | 148 | 4.8 | 8.0 | 0.00 | 0.00 | 0.00 | 53 | 1002.7 |
| 20260505011344 | 16 | 247 | 1.6 | 6.4 | 0.00 | 0.00 | 0.00 | 53 | 1002.9 |
| 20260505010846 | 16 | 254 | 1.6 | 8.0 | 0.00 | 0.00 | 0.00 | 53 | 1002.9 |
| 20260505010342 | 16 | 246 | 3.2 | 8.0 | 0.00 | 0.00 | 0.00 | 53 | 1002.9 |
| 20260505005845 | 16 | 221 | 3.2 | 12.9 | 0.00 | 0.00 | 0.00 | 52 | 1002.9 |
| 20260505005349 | 16 | 248 | 4.8 | 12.9 | 0.00 | 0.00 | 0.00 | 52 | 1002.8 |
| 20260505004833 | 16 | 241 | 3.2 | 9.7 | 0.00 | 0.00 | 0.00 | 51 | 1002.7 |
| 20260505004344 | 17 | 315 | 1.6 | 11.3 | 0.00 | 0.00 | 0.00 | 52 | 1002.7 |
| 20260505003837 | 17 | 254 | 3.2 | 14.5 | 0.00 | 0.00 | 0.00 | 51 | 1002.8 |
| 20260505003334 | 17 | 227 | 4.8 | 14.5 | 0.00 | 0.00 | 0.00 | 51 | 1002.7 |
| 20260505002858 | 17 | 214 | 4.8 | 11.3 | 0.00 | 0.00 | 0.00 | 50 | 1002.7 |
| 20260505002334 | 17 | 273 | 1.6 | 9.7 | 0.00 | 0.00 | 0.00 | 50 | 1002.6 |
| 20260505001835 | 17 | 246 | 3.2 | 9.7 | 0.00 | 0.00 | 0.00 | 50 | 1002.7 |
| 20260505001347 | 17 | 289 | 1.6 | 16.1 | 0.00 | 0.00 | 0.00 | 50 | 1002.8 |
| 20260505000844 | 17 | 219 | 6.4 | 16.1 | 0.00 | 0.00 | 0.00 | 48 | 1002.8 |
| 20260505000343 | 17 | 207 | 3.2 | 14.5 | 0.00 | 0.00 | 0.00 | 48 | 1002.9 |
| 20260504235851 | 18 | 225 | 1.6 | 16.1 | 0.00 | 0.00 | 0.00 | 46 | 1002.8 |
| 20260504235353 | 18 | 318 | 3.2 | 16.1 | 0.00 | 0.00 | 0.00 | 45 | 1002.8 |
| 20260504234907 | 18 | 177 | 3.2 | 20.9 | 0.00 | 0.00 | 0.00 | 45 | 1002.8 |
| 20260504234338 | 18 | 244 | 8.0 | 20.9 | 0.00 | 0.00 | 0.00 | 43 | 1002.8 |
| 20260504233837 | 18 | 222 | 6.4 | 20.9 | 0.00 | 0.00 | 0.00 | 43 | 1002.7 |
| 20260504233356 | 18 | 224 | 6.4 | 25.7 | 0.00 | 0.00 | 0.00 | 43 | 1002.8 |
| 20260504232843 | 18 | 230 | 6.4 | 19.3 | 0.00 | 0.00 | 0.00 | 42 | 1002.7 |
| 20260504232344 | 18 | 207 | 6.4 | 16.1 | 0.00 | 0.00 | 0.00 | 41 | 1002.7 |
| 20260504231905 | 18 | 233 | 3.2 | 16.1 | 0.00 | 0.00 | 0.00 | 42 | 1002.8 |
| 20260504231338 | 19 | 211 | 9.7 | 24.1 | 0.00 | 0.00 | 0.00 | 40 | 1002.7 |